Change the Weather History Date:

Monday, April 1, 2013

  Actual Average Record
Temperature  
Mean Temperature 57 °F 47 °F  
Max Temperature 74 °F 59 °F 77 °F (2000)
Min Temperature 40 °F 35 °F 22 °F (1982)
Degree Days  
Heating Degree Days 8 18  
Month to date heating degree days 8 18  
Since 1 July heating degree days 4902 5275  
Cooling Degree Days 0 0  
Month to date cooling degree days 0 0  
Year to date cooling degree days 0 0  
Growing Degree Days 9 (Base 50)    
Moisture  
Dew Point 35 °F    
Average Humidity 45    
Maximum Humidity 65    
Minimum Humidity 25    
Precipitation  
Precipitation 0.00 in 0.02 in 0.41 in (1983)
Month to date precipitation 0.00 0.02  
Year to date precipitation 0.89 2.35  
Sea Level Pressure  
Sea Level Pressure 29.92 in    
Wind  
Wind Speed 6 mph (NNW)    
Max Wind Speed 21 mph    
Max Gust Speed 25 mph    
Visibility 10 miles    
Events      
T = Trace of Precipitation, MM = Missing Value Source: NWS Daily Summary

Daily Weather History Graph

Daily Weather History Graph

Search for Another Location

Airport or City:

Trip Planner

Search our weather history database for the weather conditions in past years. The results will help you decide how hot, cold, wet, or windy it might be!

Date:

Astronomy

Apr. 01, 2013 Rise Set
Actual Time 6:36 AM PDT 7:28 PM PDT
Civil Twilight 6:05 AM PDT 7:59 PM PDT
Nautical Twilight 5:28 AM PDT 8:36 PM PDT
Astronomical Twilight 4:49 AM PDT 9:15 PM PDT
Moon 12:58 AM PDT (4/1) 10:10 AM PDT (4/1)
Length of Visible Light 13h 54m
Length of Day
12h 51m
Waning Gibbous, 66% of the Moon is Illuminated
Apr 1
Waning Gibbous
Apr 2
Last Quarter
Apr 10
New
Apr 18
First Quarter
Apr 25
Full

Hourly Weather History & Observations

Time (PDT) Temp. Windchill Dew Point Humidity Pressure Visibility Wind Dir Wind Speed Gust Speed Precip Events Conditions
12:53 AM 57.0 °F - 32.0 °F 39% 29.90 in 10.0 mi NW 9.2 mph - N/A   Clear
1:53 AM 53.1 °F - 32.0 °F 45% 29.91 in 10.0 mi North 5.8 mph - N/A   Clear
2:53 AM 54.0 °F - 32.0 °F 43% 29.90 in 10.0 mi NW 12.7 mph - N/A   Clear
3:53 AM 52.0 °F - 32.0 °F 47% 29.91 in 10.0 mi NNW 5.8 mph - N/A   Clear
4:53 AM 50.0 °F - 33.1 °F 52% 29.91 in 10.0 mi North 11.5 mph - N/A   Clear
5:53 AM 48.0 °F - 33.1 °F 56% 29.92 in 10.0 mi North 10.4 mph - N/A   Clear
6:53 AM 45.0 °F 42.6 °F 33.1 °F 63% 29.94 in 10.0 mi NNE 4.6 mph - N/A   Clear
8:53 AM 54.0 °F - 35.1 °F 49% 29.97 in 10.0 mi Calm Calm - N/A   Clear
9:53 AM 59.0 °F - 35.1 °F 41% 29.98 in 10.0 mi Calm Calm - N/A   Clear
10:53 AM 63.0 °F - 35.1 °F 35% 29.97 in 10.0 mi Calm Calm - N/A   Clear
11:53 AM 66.9 °F - 33.1 °F 28% 29.96 in 10.0 mi ESE 4.6 mph - N/A   Clear
12:53 PM 68.0 °F - 35.1 °F 30% 29.95 in 10.0 mi East 4.6 mph - N/A   Clear
1:53 PM 70.0 °F - 37.0 °F 30% 29.93 in 10.0 mi Variable 3.5 mph - N/A   Clear
2:53 PM 72.0 °F - 37.9 °F 29% 29.92 in 10.0 mi SSW 4.6 mph - N/A   Clear
3:53 PM 72.0 °F - 35.1 °F 26% 29.91 in 10.0 mi SSE 3.5 mph - N/A   Clear
4:53 PM 73.0 °F - 35.1 °F 25% 29.89 in 10.0 mi SW 5.8 mph - N/A   Clear
5:53 PM 73.0 °F - 37.0 °F 27% 29.89 in 10.0 mi South 8.1 mph - N/A   Clear
6:53 PM 66.0 °F - 42.1 °F 42% 29.89 in 10.0 mi South 6.9 mph - N/A   Clear
7:53 PM 59.0 °F - 41.0 °F 51% 29.91 in 10.0 mi South 5.8 mph - N/A   Clear
8:53 PM 62.1 °F - 39.0 °F 43% 29.91 in 10.0 mi WNW 5.8 mph - N/A   Clear
9:53 PM 60.1 °F - 37.0 °F 42% 29.92 in 10.0 mi North 10.4 mph - N/A   Clear
10:53 PM 60.1 °F - 37.0 °F 42% 29.91 in 10.0 mi NW 19.6 mph 25.3 mph N/A   Clear
11:53 PM 59.0 °F - 37.0 °F 44% 29.94 in 10.0 mi ENE 3.5 mph - N/A   Clear